Погода в Винном

Россия / Астраханская область     46°28′23″N   48°16′48″E
темп.,
°C
ветер,
м/с
пор.,
м/с
влажн.,
%
обл.,
%
осадки,
мм/ч
давл.,
гПа
погр.,
м
24 июня, чт
чт2401:00+26в33245 0.0 101539
04:00+25в33254 0.0 101438
07:00+29в47250 0.0 1015189
10:00+36вюв56150 0.0 10141581
13:00+39вюв66100 0.0 10142935
16:00+39юв6599 0.0 10132865
19:00+36юв551154 0.0 10141046
22:00+28ю331930 0.0 101428
25 июня, пт
пт2501:00+26юв11210 0.0 101212
04:00+25с122285 0.0 101311
07:00+29всв231997 0.0 101296
10:00+37вюв461179 0.0 10121199
13:00+40юв7710100 0.0 10112533
16:00+40ююв7711100 0.0 10102328
19:00+36юв561553 0.0 1010686
22:00+29юв342583 0.0 101045
26 июня, сб
сб2601:00+27ююв22332 0.0 101016
04:00+26юв223012 0.0 100911
07:00+31в362236 0.0 1009176
10:00+38вюв671299 0.0 10081287
13:00+40вюв661361 0.0 10082375
16:00+40юв8813100 0.0 10072614
19:00+36юв6921100 0.0 1007690
22:00+29ююв493559 0.0 1007150
27 июня, вс
вс2701:00+28ююв4641100 0.0 100789
04:00+27в48388 0.0 1008113
07:00+31в7133336 0.0 1007427
10:00+39вюв8101962 0.0 10071655
13:00+40вюв91117100 0.0 10072216
16:00+39вюв8917100 0.0 10071609
19:00+34вюв7112492 0.0 1007399
22:00+29юз223724 0.0 100925
28 июня, пн
пн2801:00+26всв12465 0.0 100813
04:00+25ююв3352100 0.0 100834
07:00+28вюв234496 0.0 1008185
10:00+35ю3430100 0.0 10081013
13:00+38зюз5425100 0.0 10072259
16:00+38зюз9627100 0.0 10072141
19:00+36з452983 0.1 1007717
22:00+31юз45384 0.1 100774